www.pogodaiklimat.ru

Погода и климат >> Архив погоды >> Чили >> Pudahuel


ПОГОДА в Pudahuel

  • Прогноз погоды в Pudahuel
  • Монитор погоды в Pudahuel
  • Климат города

АРХИВ ПОГОДЫ в Pudahuel

Время (UTC), дата Ветер
(напр.,м/с)
 
Видим.   Явления Облачность Т
(С)
Тd
(С)
f
(%)
Тe
(С)
Тes
(С)
Комфортность P
(гПа)
Po
(гПа)
Тmin
(С)
Tmax
(С)
R
(мм)
R24
(мм)
S
(см)
18 10.12 ЮЗ 6 10 км ясно +29.1 +11.0 33 +30 +37 жарко 1011.7 959.0
21 10.12 ЮЗ 10 10 км 5/0
[Ci sp]
+26.0 +9.2 35 +26 +27 жарко 1011.6 958.4
00 11.12 Ю 7 10 км 8/0
[Ci fib]
+22.0 +4.3 31 +22 +22 комфорт 1014.4 960.6 +29.4
03 11.12 ЮВ 5 10 км 6/0
[Ci fib]
+17.0 +3.8 41 +16 +16 1017.7 962.8
06 11.12 Ю 4 10 км 6/0
[Ci fib]
+13.5 +7.8 68 +12 +12 1018.2 962.6
09 11.12 Ю 3 8000 м мгла 8/0
[Ci fib]
+12.7 +9.4 80 +12 +12 1019.4 963.6
12 11.12 СВ 2 8000 м дым 6/0
[Ac trans Ci fib]
+14.5 +8.9 69 +14 +17 1020.0 964.5 +10.9
15 11.12 Ю 5 10 км 4/0
[Cc]
+21.4 +7.8 42 +22 +32 комфорт 1018.3 964.2
18 11.12 ЮЗ 6 10 км ясно +27.1 +3.2 21 +26 +34 жарко 1016.4 963.4
21 11.12 ЮЗ 7 10 км ясно +28.0 +6.4 25 +27 +29 жарко 1014.5 961.7
00 12.12 ЮЗ 7 10 км ясно +22.9 +9.8 43 +25 +25 комфорт 1015.5 961.6 +29.8
03 12.12 ЮЗ 4 10 км ясно +20.8 +10.1 50 +23 +23 комфорт 1016.4 962.0
06 12.12 ЮВ 2 10 км ясно +16.7 +10.8 68 +17 +17 1015.4 960.4
09 12.12 0 8000 м дым ясно +15.1 +10.3 73 1015.2 959.9
15 12.12 Ю 4 10 км ясно +25.0 +10.3 40 +26 +40 жарко 1011.7 958.6
18 12.12 ЮЗ 6 10 км ясно +28.6 +8.6 29 +28 +36 жарко 1009.7 957.3
21 12.12 ЮЗ 9 10 км ясно +27.2 +8.9 32 +27 +28 жарко 1008.7 956.1
00 13.12 ЮВ 6 10 км 8/0
[Ac trans Cc]
+20.5 +7.6 43 +21 +21 комфорт 1011.9 957.9 +31.0
03 13.12 Ю 5 10 км 3/0
[Ci fib]
+15.0 +4.7 50 +14 +14 1015.9 960.7
06 13.12 ЮВ 4 10 км ясно +12.4 +6.1 65 +11 +11 1014.2 958.6
09 13.12 Ю 4 10 км ясно +10.2 +7.3 82 +8 +8 1016.8 960.7
12 13.12 Ю 3 10 км ясно +12.7 +7.2 69 +11 +15 1017.7 962.1 +10.1
15 13.12 Ю 4 10 км 3/0
[Ci sp]
+17.4 +6.4 48 +17 +28 1017.2 962.4
18 13.12 Ю 5 10 км 1/1 1200 м
[Cu hum]
+21.8 +7.4 39 +23 +33 комфорт 1015.9 962.0
21 13.12 ЮЗ 8 10 км ясно +22.6 +4.8 31 +23 +24 комфорт 1014.1 960.3
00 14.12 Ю 8 10 км ясно +16.0 +5.4 49 +14 +14 1017.8 962.7 +24.3
03 14.12 ЮВ 4 10 км ясно +13.5 +6.4 62 +12 +12 1021.0 965.3
06 14.12 ЮВ 3 10 км ясно +11.7 +6.5 70 +10 +10 1019.8 963.8
09 14.12 штиль 0 10 км ясно +9.1 +5.1 76 +8 +8 1020.1 963.6
12 14.12 СВ 2 10 км ясно +13.8 +6.5 61 +13 +18 1019.8 964.2 +8.7
15 14.12 ЮЗ 3 10 км 6/0
[Ci fib]
+19.8 +6.7 42 +21 +36 комфорт 1017.1 962.7
18 14.12 Ю 6 10 км 9/0
[Ci sp]
+23.3 +7.2 35 +24 +31 комфорт 1015.6 961.9
21 14.12 Ю 5 10 км 9/0
[Ci sp]
+25.2 +4.0 25 +24 +27 комфорт 1014.5 961.2
00 15.12 ЮЗ 5 10 км 8/0
[Ci]
+21.4 +5.9 36 +22 +22 комфорт 1015.9 961.7 +26.2
03 15.12 ЮВ 4 10 км 5/0
[Ci]
+18.3 +6.9 47 +18 +18 1017.5 962.6
06 15.12 ЮВ 2 10 км ясно +15.6 +7.4 58 +16 +16 1016.5 961.2
09 15.12 С 2 10 км ясно +12.3 +6.4 67 +12 +12 1017.1 961.2
12 15.12 0 10 км ясно +17.0 +6.6 50 1017.3 962.4 +10.9
15 15.12 Ю 4 10 км ясно +24.0 +7.4 34 +24 +38 комфорт 1014.9 961.4
18 15.12 Ю 6 10 км ясно +28.8 +7.1 25 +28 +37 жарко 1012.9 960.2
21 15.12 ЮЗ 8 10 км ясно +28.1 +6.5 25 +27 +29 жарко 1011.1 958.5
00 16.12 Ю 7 10 км ясно +22.7 +6.2 34 +23 +23 комфорт 1012.6 958.8 +30.3
03 16.12 ЮВ 4 10 км ясно +18.7 +5.7 42 +19 +19 1015.1 960.4
06 16.12 Ю 4 10 км ясно +16.6 +4.7 45 +16 +16 1014.7 959.7
09 16.12 Ю 2 10 км ясно +14.1 +5.5 56 +14 +14 1015.3 959.8
12 16.12 штиль 0 10 км ясно +19.3 +5.7 41 +20 +26 1015.6 961.2 +11.6 0.0
15 16.12 0 10 км ясно +25.7 +5.5 27 1013.2 960.1
18 16.12 ЮЗ 6 10 км ясно +31.5 +5.4 19 +29 +37 жарко 1010.7 958.7
21 16.12 ЮЗ 8 10 км ясно +29.8 +6.9 24 +29 +30 жарко 1009.4 957.2
00 17.12 Ю 7 10 км ясно +24.7 +7.1 32 +25 +25 комфорт 1011.1 957.9 +32.3
03 17.12 ЮВ 4 10 км ясно +20.9 +5.4 36 +22 +22 комфорт 1012.8 958.9
06 17.12 З 2 10 км ясно +18.2 +5.5 43 +19 +19 1012.2 957.7
09 17.12 Ю 2 10 км ясно +14.6 +7.0 60 +14 +14 1013.2 958.1
12 17.12 С 3 10 км ясно +20.0 +7.2 43 +21 +25 комфорт 1012.8 958.8 +13.3
15 17.12 Ю 4 10 км ясно +27.3 +8.0 30 +27 +39 жарко 1010.8 958.1

 

Местоположение метеостанции Pudahuel (Чили): широта -33.38 долгота -70.78 высота над уровнем моря 474 м.

В архиве по умолчанию представлена погода в Pudahuel за последнюю неделю. Архивные данные за месяц целиком и за предыдущие месяцы, начиная с января 2011 года, Вы можете получить, выбрав интересующий диапазон дат из раскрывающегося списка и нажав кнопку "Ввод!".


*Определитесь, кто Вы:
робот инопланетянин человек

Внимание! Время в таблицах - всемирное. Для получения местного времени необходимо прибавить поправку, которая в Pudahuel равна -4 ч.

Смотрите также архив погоды в соседних городах и на ближайших метеорологических станциях:

Погода в Santiago (Чили) (11 км)
Погода в San Antonio (Чили) (79 км)
Погода в Santo Domingo (Чили) (83 км)
Погода в Punta Angeles (Чили) (89 км)
Погода в Curico (Чили) (181 км)
Погода в Mendoza (Аргентина) (196 км)
Погода в San Martin (Аргентина) (223 км)
Погода в San Rafael (Аргентина) (257 км)
Погода в Malargue (Аргентина) (260 км)
Погода в San Juan (Аргентина) (313 км)

Пояснения к столбцам:

Ветер - указаны скорость ветра в м/с - средняя за 10 мин, порывы в срок и между сроками (в фигурных скобках) и направление, откуда дует ветер: С - северный, СВ - северо-восточный, В - восточный, ЮВ - юго-восточный, Ю - южный, ЮЗ - юго-западный, З - западный, СЗ - северо-западный.
Видимость - горизонтальная дальность видимости в метрах или километрах. При видимости от 1 до 10 км при отсутствии осадков обычно наблюдается дымка, при ухудшении видимости до 1 км и менее - туман. В сухую погоду видимость может ухудшаться дымом, пылью или мглою.
Явления - указаны атмосферные явления, наблюдавшиеся в срок или в последний час перед сроком; фигурными скобками обозначены явления, наблюдавшиеся между сроками (за 1-3 часа до срока); квадратными скобками обозначены град или гололедные отложения с указанием их диаметра в мм.
Облачность - указаны через наклонную черту общая и нижняя облачность в баллах и высота нижней границы облаков в метрах; квадратными скобками обозначены формы облаков: Ci - перистые, Cs - перисто-слоистые, Cc - перисто-кучевые, Ac - высококучевые, As - высокослоистые, Sc - слоисто-кучевые, Ns - слоисто-дождевые, Cu - кучевые, Cb - кучево-дождевые. Подробнее классификацию облаков см. в Атласе облаков (PDF).
T - Температура воздуха - температура, измеренная на высоте 2 м над землей.
Td - Температура точки росы - температура, при понижении до которой содержащийся в воздухе водяной пар достигнет насыщения.
f - Относительная влажность воздуха - влажноcть воздуха, измеренная на высоте 2 м над землей.
Te - Эффективная температура - температура, которую ощущает одетый по сезону человек в тени. Характеристика душности погоды. При расчете учитывается влияние влажности воздуха и скорости ветра на теплоощущения человека.
Tes - Эффективная температура на солнце - температура, которую ощущает человек, с поправкой на солнечный нагрев. Характеристика знойности погоды. Зависит от высоты солнца над горизонтом, облачности и скорости ветра. Ночью, в пасмурную погоду, а также при ветре 12 м/с и более поправка равна нулю.
P - Атмосферное давление - приведенное к уровню моря атмосферное давление.
Po - Атмосферное давление - измеренное на уровне метеостанции атмосферное давление.
Tmin - Минимальная температура - минимум температуры воздуха на высоте 2 м над землей.
Tmax - Максимальная температура - максимум температуры воздуха на высоте 2 м над землей.
R - Количество осадков - Количество выпавших осадков за период времени, мм. При наведении курсора мыши на число - период времени, за который выпало указанное количество осадков.
R24 - Количество осадков - Количество выпавших осадков за 24 часа, мм.
S - Снежный покров - Высота снежного покрова, см. При наведении курсора мыши на число - состояние снежного покрова и степень покрытия местности в баллах.